Sanderson, TX

8:49 AM CDT on August 29, 2016 (GMT -0500)
Dryden

Weather History for K6R6 - November, 2012

Change the Weather History Date:

Thursday, November 15, 2012

  Actual Average (KFST) Record (KFST)
Temperature  
Mean Temperature 56 °F -  
Max Temperature 69 °F 66 °F 80 °F (2013)
Min Temperature 43 °F 43 °F 28 °F (1997)
Degree Days  
Heating Degree Days 9    
Growing Degree Days 6 (Base 50)    
Moisture  
Dew Point 41 °F    
Average Humidity 59    
Maximum Humidity 80    
Minimum Humidity 38    
Precipitation  
Precipitation 0.00 in - - ()
Sea Level Pressure  
Sea Level Pressure 30.15 in    
Wind  
Wind Speed 6 mph (NE)    
Max Wind Speed 12 mph    
Max Gust Speed -    
Averages and records for this station are not official NWS values.
T = Trace of Precipitation, MM = Missing Value Source: NWS Daily Summary

Daily Weather History Graph

Daily Weather History Graph

Search for Another Location

Airport or City:

Trip Planner

Search our weather history database for the weather conditions in past years. The results will help you decide how hot, cold, wet, or windy it might be!

Date:

Astronomy

Nov. 15, 2012 Rise Set
Actual Time 7:14 AM CST 5:52 PM CST
Civil Twilight 6:49 AM CST 6:17 PM CST
Nautical Twilight 6:20 AM CST 6:46 PM CST
Astronomical Twilight 5:51 AM CST 7:15 PM CST
Moon 9:07 AM CST (11/15) 7:50 PM CST (11/15)
Length of Visible Light 11h 28m
Length of Day
10h 37m
Waxing Crescent, 5% of the Moon is Illuminated
Nov 15
Waxing Crescent
Nov 20
First Quarter
Nov 28
Full
Dec 6
Last Quarter
Dec 13
New

Hourly Weather History & Observations

Time (CST) Temp. Windchill Dew Point Humidity Pressure Visibility Wind Dir Wind Speed Gust Speed Precip Events Conditions
12:53 AM 46.9 °F - 37.0 °F 68% 30.17 in - North 5.8 mph - N/A   Unknown
1:53 AM 46.9 °F - 36.0 °F 66% 30.16 in - North 6.9 mph - N/A   Unknown
2:53 AM 46.9 °F - 37.0 °F 68% 30.15 in - North 6.9 mph - N/A   Unknown
3:53 AM 46.0 °F 42.5 °F 36.0 °F 68% 30.15 in - North 6.9 mph - N/A   Unknown
4:53 AM 45.0 °F 41.8 °F 37.0 °F 74% 30.14 in - North 5.8 mph - N/A   Unknown
5:53 AM 45.0 °F 41.2 °F 37.0 °F 74% 30.14 in - North 6.9 mph - N/A   Unknown
6:53 AM 43.0 °F 39.5 °F 37.0 °F 80% 30.16 in - North 5.8 mph - N/A   Unknown
7:53 AM 46.0 °F 44.8 °F 39.0 °F 76% 30.17 in - North 3.5 mph - N/A   Unknown
8:53 AM 53.1 °F - 42.1 °F 66% 30.17 in - NNE 3.5 mph - N/A   Unknown
9:53 AM 55.9 °F - 42.1 °F 60% 30.18 in - Variable 3.5 mph - N/A   Unknown
10:53 AM 60.1 °F - 43.0 °F 53% 30.19 in - Calm Calm - N/A   Unknown
11:53 AM 63.0 °F - 43.0 °F 48% 30.16 in - SSE 4.6 mph - N/A   Unknown
12:53 PM 66.0 °F - 43.0 °F 43% 30.12 in - SE 6.9 mph - N/A   Unknown
1:53 PM 68.0 °F - 43.0 °F 40% 30.09 in - East 8.1 mph - N/A   Unknown
2:53 PM 69.1 °F - 42.1 °F 38% 30.08 in - SE 8.1 mph - N/A   Unknown
3:53 PM 69.1 °F - 42.1 °F 38% 30.08 in - East 8.1 mph - N/A   Unknown
4:53 PM 69.1 °F - 44.1 °F 40% 30.10 in - East 11.5 mph - N/A   Unknown
5:53 PM 64.9 °F - 44.1 °F 47% 30.13 in - East 6.9 mph - N/A   Unknown
6:53 PM 60.1 °F - 44.1 °F 55% 30.17 in - East 4.6 mph - N/A   Unknown
7:53 PM 55.9 °F - 44.1 °F 64% 30.18 in - ENE 4.6 mph - N/A   Unknown
8:53 PM 53.1 °F - 43.0 °F 69% 30.19 in - ENE 3.5 mph - N/A   Unknown
9:53 PM 53.1 °F - 42.1 °F 66% 30.21 in - North 5.8 mph - N/A   Unknown
10:53 PM 53.1 °F - 41.0 °F 64% 30.22 in - NNE 6.9 mph - N/A   Unknown
11:53 PM 51.1 °F - 39.0 °F 63% 30.21 in - NNE 6.9 mph - N/A   Unknown